Showing default

CENTISPACE-1 S10, 62579

Orbit data source: Space-Track

CENTISPACE-1 S10, 62579 is a payload satellite owned by Centispace (CN) in LEO that was launched on Mon, 13 Jan 2025 UTC via a JIELONG-3 launch vehicle from the Yellow Sea Launch Area, China (YSLA). Payload-class satellites include a variety of spacecraft equipped with specific instruments for various scientific and technological missions. These include communications satellites like Starlink; space stations such as the ISS; scientific satellites like the Hubble; Earth observation satellites from companies like Planet Labs, Umbra, and HawkEye 360; GPS; miniature CubeSats for education and research; and military/defense satellites.

Loading next visibility...
Identifier
62579, 2025-007E
Orbit
LEO
Country
Flag of CNCN / PRC
Related business
Manufacturer
DFH Shenzhen
Mission
Operational Commercial Nav/Com
Bus & Motor
WK01, Unknown motor
Mass
140 kg wet, 140 kg dry
Launch date (UTC)
2025-01-13 (11 months ago)
Launch vehicle
JIELONG-3
Launch site
Yellow Sea Launch Area, China (YSLA)
Object type
Payload
Rocket body
Debris
Shape & HBR
Box + 2 Pan, 0.9 m
Radar Cross Section
0.833 m², Medium (>0.1 m² and < 1m²)

Expand to show TLE details & history
Last TLE update: 5 hours ago

TLE from 5 hours ago
0 CENTISPACE-1 S10
1 62579U 25007E   25355.53083869  .00000295  00000-0  22835-3 0  9994
2 62579  54.9938 201.6610 0009896 290.5757  69.4153 14.15570523 50042
Epoch: 2025-12-21T12:44Z
TLE epoch observation values (Epoch: 2025-12-21T12:44:24.462Z)
Latitude
-0.00008°
Longitude
-79.78294°
Altitude
838.906 km
Speed
7.436 km/s
True Right ascension
13h 26m 38s
True Declination
0° 00' 00"
Sunlit
Object was in daylight at epoch
Visualization orbit readout
Latitude
Unknown
Longitude
Unknown
Altitude
Unknown
Speed
Unknown
Apparent Right ascension
Unknown
Apparent Declination
Unknown
Sunlit
N/A
Visualization observer readout
Local Sidereal Time
16:59:36
Azimuth
Unknown
Elevation
Unknown
Doppler factor
Unknown
Orbital elements
Apogee altitude
847.481 km
Perigee altitude
833.194 km
Semi-major axis
7,218.475 km
Eccentricity
0.00099
Inclination
54.9938°
RAAN
201.661°
Arg. of periapsis
290.5757°
True anomaly
69.52151°
Mean anomaly
69.4153°
Eccentric anomaly
69.4684°
Mean motion
3.53895 °/min
Orbital period
101.72 mins
BSTAR
0.00022835
Loading maneuver chart data...
Computing Atmospheric mass density...
Loading historical data...
Loading historical data...
Loading historical data...
Loading historical data...
Loading historical data...
Loading historical data...
Loading historical data...

Documentation

Showing up to 5 results
|